[[{"header":{"parameterUnit":"m.s-1","parameterCategory":1,"la1":30.2991,"la2":30.254,"lo1":-89.0895,"lo2":-89.0444,"dy":0.0017,"dx":0.0017,"nx":28,"ny":28,"refTime":"2025-12-12T09:00:00:Z","depth":0,"parameterNumber":2,"parameterNumberName":"U-component_of_WINDS"},"data":[0,0,0,0,0,0,0,0,0,0,0,0,0,0,0,0,0,0,0,0,0,0,0,0,0,0,0,0,0,0,0,0,0,0,0,0,0,0,0,0,0,0,0,0,0,0,0,0,0,0,0,0,0,0,0,0,0,0,-3.4573,-3.4573,0,-3.4608,-3.4608,-3.4609,-3.451,-3.4507,-3.4504,-3.4501,-3.4536,-3.454,-3.4544,0,0,0,0,0,0,0,0,0,0,0,0,0,-3.442,-3.4424,-3.4573,-3.4573,-3.4574,-3.4608,-3.4608,-3.4609,-3.451,-3.4507,-3.4503,-3.4499,-3.4535,-3.4539,-3.4544,0,0,0,0,0,0,0,0,0,0,0,0,0,-3.4474,-3.4425,-3.4573,-3.4529,-3.4525,-3.4608,-3.4608,-3.4609,-3.4511,-3.4506,-3.4502,-3.4498,-3.4534,-3.4539,-3.4545,-3.4671,0,0,-3.4562,-3.4564,0,0,0,0,0,0,0,0,-3.4471,-3.448,-3.4535,-3.4532,-3.4528,-3.455,-3.4567,-3.463,-3.4512,-3.4516,-3.4501,-3.4495,-3.4544,-3.4549,-3.4565,-3.4673,-3.4675,-3.4563,-3.4566,-3.4568,-3.457,0,0,0,0,0,0,0,-3.4468,-3.4478,-3.4586,-3.4536,-3.4531,-3.4507,-3.451,-3.4579,-3.4556,-3.4516,-3.4509,-3.4514,-3.4542,-3.456,-3.4566,-3.4675,-3.4562,-3.4567,-3.4571,-3.4573,-3.4889,-3.4893,0,0,0,0,0,0,-3.447,-3.4475,-3.4585,-3.4588,-3.4488,-3.4514,-3.4516,-3.4547,-3.4555,-3.4551,-3.4518,-3.4509,-3.4553,-3.4559,-3.4567,-3.4715,-3.4568,-3.4574,-3.4577,-3.4884,-3.489,-3.4895,0,0,0,0,0,0,-3.4467,-3.448,-3.4584,-3.453,-3.4541,-3.4521,-3.4557,-3.455,-3.4569,-3.4556,-3.4552,-3.4541,-3.4549,-3.4558,-3.4646,-3.4715,-3.4576,-3.4581,-3.4878,-3.4885,-3.4892,-3.5014,0,0,0,0,0,0,-3.4463,-3.448,-3.4528,-3.4531,-3.4544,-3.4663,-3.4561,-3.4554,-3.4579,-3.4568,-3.4577,-3.4574,-3.4547,-3.4638,-3.4652,-3.472,-3.4586,-3.4871,-3.4881,-3.489,-3.5004,-3.5024,-3.5042,0,0,0,0,0,-3.4458,-3.456,-3.4531,-3.4545,-3.4604,-3.4668,-3.4675,-3.4641,-3.4585,-3.4633,-3.4625,-3.4574,-3.4706,-3.4648,-3.4662,-3.4734,-3.4867,-3.4878,-3.4889,-3.4995,-3.502,-3.5042,0,0,0,0,0,0,-3.4565,-3.456,-3.4527,-3.4634,-3.4652,-3.4651,-3.471,-3.4669,-3.4703,-3.4692,-3.4649,-3.4652,-3.4747,-3.4749,-3.4685,-3.4857,-3.4777,-3.4791,-3.4852,-3.4876,-3.4895,-3.4892,-3.4591,0,0,0,0,0,-3.4601,-3.4654,-3.4646,-3.4742,-3.4752,-3.473,-3.4757,-3.4729,-3.4746,-3.4753,-3.4751,-3.477,-3.4815,-3.4846,-3.4887,-3.5004,-3.5004,-3.506,-3.508,-3.5096,-3.5108,-3.517,-3.5195,-3.4932,-3.4932,-3.4931,0,0,-3.4676,-3.468,-3.4716,-3.4763,-3.4774,-3.4829,-3.4737,-3.4799,-3.484,-3.4762,-3.4845,-3.4845,-3.4862,-3.4965,-3.501,-3.497,-3.5181,-3.511,-3.5123,-3.5127,-3.5184,-3.5209,-3.5232,-3.4939,-3.4938,-3.4937,0,0,-3.4841,-3.4849,-3.4929,-3.4942,-3.496,-3.4945,-3.4964,-3.497,-3.4967,-3.5049,-3.4992,-3.504,-3.5119,-3.5134,-3.5152,-3.5324,-3.5278,-3.5339,-3.544,-3.5501,-3.5522,-3.554,-3.5601,-3.5623,-3.5352,-3.5352,-3.5352,0,-3.4932,-3.5013,-3.4976,-3.5042,-3.5065,-3.4998,-3.5079,-3.5093,-3.5124,-3.5141,-3.5095,-3.5194,-3.5201,-3.5306,-3.5348,-3.5365,-3.5386,-3.5337,-3.5522,-3.554,-3.5556,-3.5614,-3.5637,-3.5359,-3.5358,-3.5358,-3.5357,0,-3.5123,-3.5181,-3.5243,-3.5275,-3.5304,-3.5378,-3.5352,-3.5387,-3.5358,-3.5347,-3.5432,-3.5439,-3.548,-3.5503,-3.5475,-3.5605,-3.558,-3.5529,-3.5447,-3.5589,-3.5642,-3.5664,-3.537,-3.5367,-3.5365,-3.5363,0,0,-3.5355,-3.5366,-3.539,-3.5403,-3.5419,-3.5462,-3.5533,-3.5573,-3.5604,-3.5628,-3.5686,-3.5755,-3.5708,-3.5729,-3.5702,-3.5756,-3.5891,-3.5698,-3.5698,-3.5733,-3.6035,-3.6073,-3.6099,-3.5862,-3.5866,-3.5869,-3.6033,0,-3.5517,-3.5638,-3.5607,-3.5728,-3.578,-3.5719,-3.578,-3.5796,-3.5789,-3.5832,-3.5824,-3.5874,-3.5809,-3.5821,-3.5871,-3.5864,-3.5951,-3.5852,-3.5915,-3.5917,-3.5911,-3.6127,-3.6166,-3.6321,-3.6054,-3.6058,-3.606,0,-3.5721,-3.5753,-3.5879,-3.5886,-3.5907,-3.5963,-3.5998,-3.6041,-3.6058,-3.6049,-3.6073,-3.6036,-3.6106,-3.6025,-3.612,-3.6054,-3.6078,-3.6078,-3.6084,-3.6087,-3.5997,-3.6135,-3.6369,-3.6393,-3.6093,-3.609,-3.6088,0,-3.5877,-3.5952,-3.6036,-3.605,-3.6061,-3.6102,-3.6108,-3.6121,-3.6148,-3.6179,-3.6196,-3.6235,-3.6256,-3.6287,-3.6262,-3.6205,-3.6362,-3.6278,-3.6356,-3.6356,-3.639,-3.6388,-3.6631,-3.6408,-3.6407,-3.6407,-3.6407,0,-3.606,-3.6139,-3.6106,-3.6159,-3.6246,-3.621,-3.6298,-3.6297,-3.6309,-3.636,-3.631,-3.6359,-3.6322,-3.6368,-3.6349,-3.6431,-3.6441,-3.6435,-3.6429,-3.6439,-3.644,-3.6454,-3.6442,-3.6413,-3.6412,-3.6411,-3.641,0,-3.6247,-3.6229,-3.6317,-3.6321,-3.6324,-3.6388,-3.6391,-3.6439,-3.6429,-3.6494,-3.6507,-3.6491,-3.6543,-3.6521,-3.6575,-3.6562,-3.6667,-3.6647,-3.6661,-3.6656,-3.6734,-3.6727,-3.6993,-3.7026,-3.6783,-3.6785,-3.6787,0,-3.6365,-3.6424,-3.6435,-3.6466,-3.6476,-3.6526,-3.6553,-3.6522,-3.6552,-3.6577,-3.6623,-3.667,-3.6706,-3.6791,-3.6784,-3.6826,-3.6806,-3.6896,-3.6811,-3.682,-3.6806,-3.6802,-3.6808,-3.6913,-3.6916,-3.6918,-3.692,0,-3.6575,-3.6563,-3.6605,-3.6644,-3.6678,-3.6707,-3.6732,-3.676,-3.6729,-3.6766,-3.6819,-3.6847,-3.6903,-3.695,-3.6987,-3.6993,-3.6952,-3.6947,-3.6967,-3.6977,-3.6983,-3.698,-3.6707,-3.694,-3.6938,-3.6937,-3.6936,-3.6935,-3.673,-3.6781,-3.6796,-3.6844,-3.686,-3.6884,-3.693,-3.6926,-3.6969,-3.7012,-3.6991,-3.7052,-3.7069,-3.7114,-3.7127,-3.7174,-3.7138,-3.7167,-3.7174,-3.7182,-3.7192,-3.6977,-3.718,-3.718,-3.7179,-3.7179,-3.7178,0,-3.6937,-3.6945,-3.6989,-3.7026,-3.7064,-3.7023,-3.7048,-3.7083,-3.7137,-3.7156,-3.7193,-3.7254,-3.73,-3.7298,-3.734,-3.7379,-3.7361,-3.7391,-3.7387,-3.7389,-3.7221,-3.72,-3.7405,-3.7405,-3.7404,-3.7404,-3.7404,-3.7404,-3.7049,-3.7132,-3.7122,-3.7213,-3.7219,-3.7279,-3.7297,-3.7319,-3.7335,-3.7405,-3.7443,-3.7441,-3.7452,-3.7495,-3.7536,-3.7534,-3.7552,-3.7589,-3.758,-3.7423,-3.7401,-3.7379,-3.7358,-3.7594,-3.7594,-3.7743,-3.7745,-3.7746]},{"header":{"parameterUnit":"m.s-1","parameterCategory":1,"la1":30.2991,"la2":30.254,"lo1":-89.0895,"lo2":-89.0444,"dy":0.0017,"dx":0.0017,"nx":28,"ny":28,"refTime":"2025-12-12T09:00:00:Z","depth":0,"parameterNumber":3,"parameterNumberName":"V-component_of_WINDS"},"data":[0,0,0,0,0,0,0,0,0,0,0,0,0,0,0,0,0,0,0,0,0,0,0,0,0,0,0,0,0,0,0,0,0,0,0,0,0,0,0,0,0,0,0,0,0,0,0,0,0,0,0,0,0,0,0,0,0,0,1.476,1.476,0,1.477,1.477,1.4771,1.4752,1.4751,1.475,1.475,1.4759,1.4759,1.476,0,0,0,0,0,0,0,0,0,0,0,0,0,1.4723,1.4724,1.476,1.476,1.476,1.477,1.477,1.4771,1.4752,1.4751,1.475,1.475,1.4758,1.4759,1.476,0,0,0,0,0,0,0,0,0,0,0,0,0,1.4737,1.4724,1.476,1.4752,1.4751,1.477,1.477,1.4771,1.4752,1.4751,1.475,1.4749,1.4758,1.4759,1.476,1.4787,0,0,1.4764,1.4765,0,0,0,0,0,0,0,0,1.4736,1.4738,1.4753,1.4753,1.4752,1.4759,1.4761,1.4776,1.4752,1.4752,1.475,1.4749,1.4759,1.476,1.4764,1.4787,1.4787,1.4764,1.4765,1.4765,1.4766,0,0,0,0,0,0,0,1.4735,1.4738,1.4764,1.4753,1.4753,1.4748,1.4749,1.4763,1.4761,1.4752,1.475,1.4752,1.4759,1.4763,1.4764,1.4787,1.4764,1.4765,1.4766,1.4766,1.4834,1.4835,0,0,0,0,0,0,1.4735,1.4737,1.4764,1.4764,1.4742,1.4749,1.475,1.4758,1.476,1.476,1.4753,1.4751,1.4761,1.4763,1.4765,1.4797,1.4765,1.4767,1.4767,1.4833,1.4834,1.4836,0,0,0,0,0,0,1.4735,1.4738,1.4763,1.475,1.4753,1.4751,1.4759,1.4758,1.4763,1.4761,1.476,1.4758,1.4761,1.4763,1.4782,1.4797,1.4767,1.4768,1.4832,1.4834,1.4835,1.4861,0,0,0,0,0,0,1.4734,1.4738,1.4748,1.4751,1.4754,1.4781,1.476,1.4759,1.4765,1.4763,1.4766,1.4765,1.476,1.478,1.4783,1.4798,1.4769,1.4831,1.4833,1.4835,1.4858,1.4863,1.4867,0,0,0,0,0,1.4732,1.4753,1.4748,1.4752,1.4766,1.4781,1.4783,1.4778,1.4766,1.4776,1.4776,1.4765,1.4795,1.4782,1.4785,1.4801,1.483,1.4832,1.4834,1.4856,1.4862,1.4867,0,0,0,0,0,0,1.4751,1.4754,1.4748,1.4771,1.4776,1.4778,1.479,1.4783,1.4791,1.4789,1.4781,1.4782,1.4803,1.4803,1.479,1.4827,1.481,1.4813,1.4826,1.4831,1.4835,1.4834,1.477,0,0,0,0,0,1.4758,1.477,1.4772,1.4792,1.4795,1.4793,1.4799,1.4794,1.4799,1.4801,1.4802,1.4807,1.4817,1.4824,1.4834,1.4859,1.4859,1.4871,1.4875,1.4878,1.4881,1.4896,1.4901,1.4844,1.4844,1.4844,0,0,1.4771,1.4775,1.4783,1.4796,1.4799,1.4812,1.4794,1.4808,1.4818,1.4803,1.4822,1.4822,1.4827,1.485,1.486,1.4851,1.4898,1.4881,1.4884,1.4885,1.4899,1.4904,1.4909,1.4845,1.4845,1.4845,0,0,1.4804,1.4807,1.4825,1.483,1.4836,1.4835,1.4839,1.4843,1.4844,1.4862,1.4852,1.4863,1.4881,1.4886,1.489,1.4927,1.4918,1.493,1.4952,1.4966,1.4971,1.4975,1.4989,1.4994,1.4933,1.4933,1.4933,0,1.482,1.484,1.4835,1.4851,1.4857,1.4846,1.4864,1.4868,1.4877,1.4882,1.4872,1.4896,1.4898,1.4923,1.4932,1.4936,1.4941,1.493,1.4971,1.4975,1.4978,1.4992,1.4997,1.4935,1.4935,1.4934,1.4934,0,1.486,1.4874,1.4888,1.4899,1.4906,1.4923,1.4921,1.493,1.4925,1.4925,1.4945,1.4948,1.4958,1.4964,1.4959,1.4988,1.4983,1.4972,1.4955,1.4986,1.4998,1.5003,1.4937,1.4936,1.4936,1.4936,0,0,1.4902,1.4912,1.4917,1.4923,1.4931,1.4941,1.4958,1.497,1.4978,1.4985,1.4999,1.5016,1.5007,1.5012,1.5008,1.502,1.5051,1.5008,1.5008,1.5017,1.5085,1.5093,1.5099,1.5045,1.5046,1.5047,1.5084,0,1.4935,1.4966,1.4963,1.4991,1.5005,1.4995,1.501,1.5017,1.5017,1.5029,1.5029,1.5042,1.5028,1.5032,1.5044,1.5045,1.5064,1.5042,1.5058,1.5059,1.5058,1.5105,1.5113,1.5149,1.5089,1.509,1.5091,0,1.4977,1.4988,1.5018,1.5026,1.5031,1.5045,1.5057,1.5068,1.5075,1.5075,1.5082,1.5076,1.5093,1.5076,1.51,1.5085,1.5092,1.5093,1.5095,1.5096,1.5077,1.5108,1.516,1.5165,1.5098,1.5097,1.5097,0,1.5007,1.5028,1.505,1.5055,1.5064,1.5074,1.5078,1.5084,1.5092,1.5102,1.5107,1.5119,1.5125,1.5134,1.5132,1.5119,1.5157,1.5139,1.5157,1.5157,1.5165,1.5165,1.5219,1.5169,1.5169,1.5169,1.5169,0,1.5044,1.5063,1.5063,1.5077,1.5098,1.5095,1.5116,1.5119,1.5126,1.5139,1.5131,1.5144,1.514,1.5153,1.515,1.5172,1.5174,1.5174,1.5174,1.5175,1.5176,1.518,1.5177,1.517,1.517,1.517,1.5169,0,1.5079,1.5081,1.5104,1.5111,1.5114,1.5129,1.5136,1.5148,1.5149,1.5167,1.5171,1.5172,1.5187,1.5185,1.5201,1.52,1.5227,1.5222,1.5224,1.5224,1.5242,1.5241,1.5301,1.531,1.5254,1.5254,1.5255,0,1.5103,1.5118,1.5128,1.5138,1.5143,1.5158,1.5166,1.5164,1.5174,1.5185,1.5196,1.5211,1.5222,1.5246,1.5248,1.5261,1.5258,1.5278,1.5259,1.5261,1.5259,1.5258,1.526,1.5282,1.5282,1.5283,1.5283,0,1.5146,1.5146,1.516,1.5174,1.5185,1.5196,1.5206,1.5214,1.5213,1.5224,1.524,1.5249,1.5267,1.5281,1.5294,1.5297,1.529,1.5289,1.5294,1.5296,1.5297,1.5298,1.5235,1.5288,1.5287,1.5287,1.5287,1.5286,1.5177,1.519,1.52,1.5216,1.5224,1.5234,1.5247,1.525,1.5264,1.5279,1.5277,1.5295,1.5304,1.532,1.5325,1.5339,1.5332,1.5339,1.5341,1.5343,1.5345,1.5295,1.5341,1.5341,1.5341,1.5341,1.5341,0,1.5219,1.5226,1.5241,1.5256,1.5269,1.5263,1.5274,1.5285,1.5301,1.531,1.5323,1.5342,1.5356,1.536,1.5375,1.5385,1.5383,1.5389,1.5388,1.539,1.5351,1.5345,1.5391,1.5391,1.5391,1.5391,1.5391,1.5391,1.5243,1.5266,1.5269,1.5296,1.5302,1.5321,1.5328,1.5338,1.5345,1.5368,1.538,1.5383,1.5391,1.5406,1.5419,1.542,1.5426,1.5434,1.5434,1.5397,1.5392,1.5387,1.5382,1.5435,1.5435,1.5472,1.5472,1.5472]}]]